Submittal Forms
Current Contests
Recent Contests

Club Activity Tracker - The Villages Amateur Radio Club (from club selection on form)

Recent postings for the selected club or group are listed below. Other than the call used, all calls listed are only those associated with the club or group. Click on a call to see the details of the posting.
Status Key: new=new posting, update=update prior posting, move=change club/group, delete=delete prior posting.

Sort by   for past

TimestampCallContestClassPowerScoreStatus
2020-05-28 04:02:42W2TRCWopsTSingle OpHP3,136new5615
2020-05-28 03:51:40K3ZGACWopsTSingle OpLP625new5615
2020-05-27 20:20:24W2TRCWopsTSingle OpHP3,422new5614
2020-05-27 20:03:31K1CTRCWopsTSingle OpHP1,764new5614
2020-05-27 20:02:30K3ZGACWopsTSingle OpLP576new5614
2020-05-27 20:01:57W3USCWopsTSingle OpLP1,558new5614
2020-05-27 15:21:29K3ZGACWopsTSingle OpLP930new5613
2020-05-27 14:02:49K1CTRCWopsTSingle OpHP841new5613
2020-05-27 14:01:34W2TRCWopsTSingle OpHP3,364new5613
2020-05-27 14:01:28W3USCWopsTSingle OpLP2,300new5613
 
2020-05-21 04:05:44W2TRCWopsTSingle OpHP4,599new5594
2020-05-21 03:52:45K3ZGACWopsTSingle OpLP400new5594
2020-05-20 20:05:09W2TRCWopsTSingle OpHP1,978new5593
2020-05-20 20:02:18K1CTRCWopsTSingle OpLP361new5593
2020-05-20 20:02:06W3USCWopsTSingle OpLP2,500new5593
2020-05-20 20:02:00K3ZGACWopsTSingle OpLP1,089new5593
2020-05-20 14:05:57W3USCWopsTSingle OpLP1,056new5592
2020-05-20 14:02:04W2TRCWopsTSingle OpHP3,721new5592
2020-05-20 14:01:47K3ZGACWopsTSingle OpLP702new5592
2020-05-19 02:04:52AC6ZMWWSACSOAB-OMLP352new5587
 
2020-05-17 13:18:27K3ZGAHamventionSingle OpLP32new5569
2020-05-17 00:58:08N0SMXHamventionSingle OpLP18new5569
2020-05-14 04:07:07K3ZGACWopsTSingle OpLP729new5576
2020-05-14 04:02:56W2TRCWopsTSingle OpHP6,300new5576
2020-05-14 03:05:26K1CTRCWopsTSingle OpLP1,024update5575
2020-05-13 20:03:58W2TRCWopsTSingle OpHP2,754new5575
2020-05-13 20:01:58W3USCWopsTSingle OpLP1,330new5575
2020-05-13 20:01:00K3ZGACWopsTSingle OpLP324new5575
2020-05-13 14:03:05K1CTRCWopsTSingle OpLP625new5574
2020-05-13 14:02:40W3USCWopsTSingle OpLP1,088new5574
 
2020-05-13 14:02:28W2TRCWopsTSingle OpHP4,096new5574
2020-05-13 14:01:54K3ZGACWopsTSingle OpLP1,225new5574
2020-05-10 20:55:21K2PSVolta RTTYSOABHP4,716,864new5563
2020-05-10 15:48:20ND4GVolta RTTYSOABHP10,557,952new5563
2020-05-10 02:32:37K3ZGAArQPSOCWLP590new5565
2020-05-07 04:03:22W2TRCWopsTSingle OpHP3,770new5559
2020-05-07 04:01:16K3ZGACWopsTSingle OpLP625new5559
2020-05-06 20:09:11W2TRCWopsTSingle OpHP1,974new5558
2020-05-06 20:01:30K3ZGACWopsTSingle OpLP600new5558
2020-05-06 14:05:09K3ZGACWopsTSingle OpLP992new5557
 
2020-05-06 14:02:25K1CTRCWopsTSingle OpLP961new5557
2020-05-06 14:02:22W3USCWopsTSingle OpLP961new5557
2020-05-06 14:01:49W2TRCWopsTSingle OpHP3,600new5557
2020-05-05 20:19:22K2TENewEngQPSingle OpHP16,065new5547
2020-05-05 20:17:22K2TE7QPSO(A)CWHP14,061new5544
2020-05-04 21:20:36K2PSInQPSingle OpHP128new5545
2020-05-04 21:13:31K2PSNewEngQPSingle OpHP12,320new5547
2020-05-04 21:11:27K2PSDeQPSingle OpHP160new5546
2020-05-04 21:10:01K2PS7QPSOCWHP4,788new5544
2020-05-04 17:52:59K1CTR7QPSOCWLP1,827update5544
 
2020-05-04 17:45:53K1CTRNewEngQPSingle OpLP3,654new5547
2020-05-04 17:43:29K1CTRInQPSingle OpLP18new5545
2020-05-04 17:41:44K1CTRDeQPSingle OpLP40new5546
2020-05-04 14:53:14K3ZGAInQPSingle OpLP40update5545
2020-05-04 11:30:05N0SMXInQPSingle OpHP8new5545
2020-05-04 11:28:31N0SMXNewEngQPSingle OpHP3,968new5547
2020-05-04 11:26:58N0SMXDeQPSingle OpHP320new5546
2020-05-04 11:25:19N0SMX7QPSOCWHP2,964new5544
2020-05-03 21:31:06K3ZGANewEngQPSingle OpLP5,248new5547
2020-05-03 21:23:30K3ZGADeQPSingle OpLP200new5546
 
2020-05-03 21:21:35K3ZGA7QPSO(A)CWLP2,700new5544
2020-04-29 00:04:50KB8SBFlQPSOABSSBHP352new